• In Deutschland
  • Länderverzeichnis
  • Für 7 Tage
  • Wassertemperatur
  • Satellitenkarten
  • Wetterkarte
  • Widgets
  • user-avatar
    Anmelden

    Stündliche Wetter Leutkirch im Allgäu

    Heute, 18 Oktober, Mittwoch

    Zeit Temperatur Niederschläge Wind Luftdruck Luftfeuchtigkeit
    00:00 +11°C° 0 mm 1 m/S 707 mmHg 74%
    01:00 +11°C° 0 mm 1 m/S 707 mmHg 73%
    02:00 +11°C° 0 mm 1 m/S 707 mmHg 72%
    03:00 +10°C° 0 mm 1 m/S 706 mmHg 72%
    04:00 +10°C° 0 mm 1 m/S 706 mmHg 71%
    05:00 +10°C° 0 mm 1 m/S 706 mmHg 70%
    06:00 +10°C° 0 mm 1 m/S 706 mmHg 68%
    07:00 +9°C° 0 mm 1 m/S 705 mmHg 67%
    08:00 +12°C° 0 mm 1 m/S 706 mmHg 63%
    09:00 +14°C° 0 mm 1 m/S 706 mmHg 58%
    10:00 +16°C° 0 mm 0 m/S 706 mmHg 54%
    11:00 +19°C° 0 mm 1 m/S 706 mmHg 52%
    12:00 +20°C° 0 mm 1 m/S 706 mmHg 50%
    13:00 +21°C° 0 mm 1 m/S 705 mmHg 48%
    14:00 +20°C° 0 mm 1 m/S 705 mmHg 54%
    15:00 +19°C° 0 mm 1 m/S 705 mmHg 60%
    16:00 +19°C° 0 mm 1 m/S 704 mmHg 66%
    17:00 +16°C° 0 mm 1 m/S 704 mmHg 72%
    18:00 +14°C° 0 mm 1 m/S 704 mmHg 78%
    19:00 +11°C° 0 mm 1 m/S 704 mmHg 84%
    20:00 +11°C° 0 mm 1 m/S 704 mmHg 83%
    21:00 +11°C° 0 mm 1 m/S 704 mmHg 82%
    22:00 +10°C° 0 mm 1 m/S 704 mmHg 82%
    23:00 +10°C° 0 mm 1 m/S 704 mmHg 80%

    Morgen, 19 Oktober, Donnerstag

    Zeit Temperatur Niederschläge Wind Luftdruck Luftfeuchtigkeit
    00:00 +10°C° 0 mm 1 m/S 704 mmHg 79%
    01:00 +10°C° 0 mm 1 m/S 704 mmHg 78%
    02:00 +9°C° 0 mm 1 m/S 704 mmHg 77%
    03:00 +9°C° 0 mm 1 m/S 704 mmHg 76%
    04:00 +9°C° 0 mm 1 m/S 703 mmHg 75%
    05:00 +9°C° 0 mm 1 m/S 703 mmHg 74%
    06:00 +8°C° 0 mm 1 m/S 703 mmHg 73%
    07:00 +8°C° 0 mm 1 m/S 703 mmHg 71%
    08:00 +11°C° 0 mm 1 m/S 703 mmHg 66%
    09:00 +13°C° 0 mm 1 m/S 704 mmHg 61%
    10:00 +16°C° 0 mm 1 m/S 704 mmHg 56%
    11:00 +18°C° 0 mm 1 m/S 704 mmHg 54%
    12:00 +19°C° 0 mm 1 m/S 704 mmHg 53%
    13:00 +19°C° 0 mm 2 m/S 703 mmHg 52%
    14:00 +18°C° 0 mm 2 m/S 703 mmHg 58%
    15:00 +18°C° 0 mm 2 m/S 703 mmHg 64%
    16:00 +17°C° 0 mm 2 m/S 702 mmHg 70%
    17:00 +15°C° 0 mm 2 m/S 702 mmHg 75%
    18:00 +13°C° 0 mm 2 m/S 702 mmHg 80%
    19:00 +11°C° 0 mm 1 m/S 702 mmHg 84%
    20:00 +11°C° 0 mm 1 m/S 703 mmHg 84%
    21:00 +11°C° 0 mm 1 m/S 703 mmHg 84%
    22:00 +10°C° 0 mm 1 m/S 703 mmHg 84%
    23:00 +10°C° 0 mm 1 m/S 703 mmHg 84%

    übermorgen, 20 Oktober, Freitag

    Zeit Temperatur Niederschläge Wind Luftdruck Luftfeuchtigkeit
    00:00 +10°C° 0 mm 1 m/S 703 mmHg 84%
    01:00 +10°C° 0 mm 1 m/S 703 mmHg 83%
    02:00 +10°C° 0 mm 1 m/S 703 mmHg 84%
    03:00 +9°C° 0 mm 1 m/S 703 mmHg 85%
    04:00 +9°C° 0 mm 1 m/S 703 mmHg 85%
    05:00 +8°C° 0 mm 2 m/S 703 mmHg 85%
    06:00 +8°C° 0 mm 2 m/S 704 mmHg 84%
    07:00 +8°C° 0 mm 2 m/S 704 mmHg 84%
    08:00 +10°C° 0 mm 2 m/S 704 mmHg 78%
    09:00 +14°C° 0 mm 2 m/S 705 mmHg 71%
    10:00 +16°C° 0 mm 2 m/S 705 mmHg 65%
    11:00 +17°C° 0 mm 2 m/S 705 mmHg 62%
    12:00 +18°C° 0 mm 2 m/S 705 mmHg 60%
    13:00 +19°C° 0 mm 2 m/S 705 mmHg 57%
    14:00 +19°C° 0 mm 1 m/S 705 mmHg 62%
    15:00 +19°C° 0 mm 1 m/S 705 mmHg 66%
    16:00 +18°C° 0 mm 1 m/S 705 mmHg 70%
    17:00 +15°C° 0 mm 1 m/S 705 mmHg 75%
    18:00 +14°C° 0 mm 1 m/S 705 mmHg 81%
    19:00 +12°C° 0 mm 1 m/S 705 mmHg 86%
    20:00 +11°C° 0 mm 1 m/S 706 mmHg 86%
    21:00 +11°C° 0 mm 1 m/S 706 mmHg 85%
    22:00 +10°C° 0 mm 2 m/S 706 mmHg 85%
    23:00 +11°C° 0 mm 1 m/S 706 mmHg 83%

    21 Oktober, Samstag

    Zeit Temperatur Niederschläge Wind Luftdruck Luftfeuchtigkeit
    00:00 +11°C° 0 mm 1 m/S 706 mmHg 82%
    01:00 +10°C° 0 mm 1 m/S 706 mmHg 81%
    02:00 +10°C° 0 mm 1 m/S 705 mmHg 80%
    03:00 +10°C° 0 mm 1 m/S 705 mmHg 78%
    04:00 +10°C° 0 mm 1 m/S 705 mmHg 77%
    05:00 +10°C° 0 mm 1 m/S 705 mmHg 76%
    06:00 +10°C° 0 mm 2 m/S 705 mmHg 75%
    07:00 +10°C° 0 mm 2 m/S 705 mmHg 74%
    08:00 +13°C° 0 mm 1 m/S 706 mmHg 69%
    09:00 +15°C° 0 mm 1 m/S 706 mmHg 65%
    10:00 +18°C° 0 mm 1 m/S 706 mmHg 61%
    11:00 +19°C° 0 mm 1 m/S 706 mmHg 58%
    12:00 +20°C° 0 mm 1 m/S 706 mmHg 55%
    13:00 +20°C° 0 mm 2 m/S 705 mmHg 52%
    14:00 +21°C° 0 mm 1 m/S 705 mmHg 57%
    15:00 +20°C° 0 mm 1 m/S 705 mmHg 62%
    16:00 +19°C° 0 mm 1 m/S 705 mmHg 67%
    17:00 +16°C° 0 mm 1 m/S 706 mmHg 72%
    18:00 +14°C° 0 mm 1 m/S 706 mmHg 77%
    19:00 +13°C° 0 mm 2 m/S 706 mmHg 82%
    20:00 +13°C° 0 mm 1 m/S 706 mmHg 85%
    21:00 +12°C° 0 mm 1 m/S 706 mmHg 87%
    22:00 +12°C° 0 mm 1 m/S 706 mmHg 89%
    23:00 +12°C° 0,1 mm 1 m/S 706 mmHg 91%

    22 Oktober, Sonntag

    Zeit Temperatur Niederschläge Wind Luftdruck Luftfeuchtigkeit
    00:00 +12°C° 0,1 mm 2 m/S 706 mmHg 93%
    01:00 +12°C° 0,1 mm 2 m/S 706 mmHg 94%
    02:00 +10°C° 0,8 mm 2 m/S 706 mmHg 95%
    03:00 +10°C° 0,8 mm 2 m/S 706 mmHg 95%
    04:00 +9°C° 0,8 mm 3 m/S 706 mmHg 95%
    05:00 +9°C° 1,1 mm 3 m/S 706 mmHg 96%
    06:00 +8°C° 1,1 mm 3 m/S 706 mmHg 96%
    07:00 +8°C° 1,1 mm 3 m/S 706 mmHg 96%
    08:00 +8°C° 1,1 mm 3 m/S 706 mmHg 96%
    09:00 +8°C° 1,1 mm 3 m/S 707 mmHg 95%
    10:00 +8°C° 1,1 mm 3 m/S 707 mmHg 95%
    11:00 +8°C° 0,7 mm 3 m/S 707 mmHg 94%
    12:00 +8°C° 0,7 mm 3 m/S 707 mmHg 93%
    13:00 +8°C° 0,7 mm 3 m/S 707 mmHg 92%
    14:00 +8°C° 0,2 mm 3 m/S 708 mmHg 90%
    15:00 +8°C° 0,2 mm 3 m/S 708 mmHg 89%
    16:00 +8°C° 0,2 mm 3 m/S 708 mmHg 88%
    17:00 +7°C° 0 mm 3 m/S 708 mmHg 90%
    18:00 +6°C° 0 mm 2 m/S 709 mmHg 92%
    19:00 +5°C° 0 mm 2 m/S 709 mmHg 94%
    20:00 +5°C° 0 mm 2 m/S 709 mmHg 94%
    21:00 +4°C° 0 mm 2 m/S 710 mmHg 95%
    22:00 +4°C° 0 mm 2 m/S 710 mmHg 95%
    23:00 +4°C° 0 mm 2 m/S 710 mmHg 95%

    23 Oktober, Montag

    Zeit Temperatur Niederschläge Wind Luftdruck Luftfeuchtigkeit
    00:00 +4°C° 0 mm 2 m/S 711 mmHg 95%
    01:00 +3°C° 0 mm 2 m/S 711 mmHg 95%
    02:00 +3°C° 0 mm 2 m/S 711 mmHg 95%
    03:00 +3°C° 0 mm 2 m/S 711 mmHg 95%
    04:00 +3°C° 0 mm 2 m/S 711 mmHg 95%
    05:00 +3°C° 0 mm 2 m/S 711 mmHg 95%
    06:00 +3°C° 0 mm 2 m/S 712 mmHg 95%
    07:00 +2°C° 0 mm 2 m/S 712 mmHg 94%
    08:00 +4°C° 0 mm 2 m/S 712 mmHg 89%
    09:00 +6°C° 0 mm 2 m/S 712 mmHg 83%
    10:00 +8°C° 0 mm 2 m/S 712 mmHg 78%
    11:00 +9°C° 0 mm 2 m/S 712 mmHg 71%
    12:00 +12°C° 0 mm 2 m/S 711 mmHg 65%
    13:00 +13°C° 0 mm 2 m/S 711 mmHg 59%
    14:00 +13°C° 0 mm 1 m/S 711 mmHg 62%
    15:00 +12°C° 0 mm 1 m/S 710 mmHg 65%
    16:00 +12°C° 0 mm 1 m/S 710 mmHg 69%
    17:00 +10°C° 0 mm 1 m/S 710 mmHg 73%
    18:00 +9°C° 0 mm 1 m/S 710 mmHg 77%
    19:00 +7°C° 0 mm 1 m/S 710 mmHg 81%
    20:00 +7°C° 0 mm 1 m/S 710 mmHg 79%
    21:00 +7°C° 0 mm 1 m/S 710 mmHg 77%
    22:00 +7°C° 0 mm 1 m/S 710 mmHg 76%
    23:00 +7°C° 0 mm 1 m/S 710 mmHg 74%
    Mehr zeigen